User: anonymous   Login
Location: Fisheating Creek Campgrounds
(26.9333°N, 81.3167°W)
Time: 02:10:37
(UTC-04:00)
Language:

NATO 3D Rocket - Orbit

View from above orbital plane
View from above orbital plane
View from above satellite
View from above satellite

Ground track
Ground track

The orbit data is extracted from the following two-line orbital elements,

1 15392U 84115B   17081.88829354 +.00000187 +00000-0 +39986-4 0  9998
2 15392 021.4928 345.4891 1034245 039.5343 327.6106 12.45541845455455
Epoch (UTC): 22 March 2017 21:19:08
Eccentricity: 0.1034245
inclination: 21.4928°
perigee height: 670 km
apogee height: 2296 km
right ascension of ascending node: 345.4891°
argument of perigee: 39.5343°
revolutions per day: 12.45541845
mean anomaly at epoch: 327.6106°
orbit number at epoch: 45545

The dashed part of the orbit path shows where the satellite is in the earth's shadow,  

DLR